Ketchikan, AK

9:51 PM AKDT on September 20, 2018 (GMT -0800)
Ketchikan International

Weather History for PAKT - March, 2018

Change the Weather History Date:

Thursday, March 1, 2018

  Actual Average Record
Temperature  
Mean Temperature 40 °F -  
Max Temperature 44 °F 41 °F 54 °F (1950)
Min Temperature 33 °F 30 °F 9 °F (2011)
Degree Days  
Heating Degree Days 26    
Moisture  
Dew Point 20 °F    
Average Humidity 43    
Maximum Humidity 56    
Minimum Humidity 34    
Precipitation  
Precipitation 0.00 in - - ()
Sea Level Pressure  
Sea Level Pressure 29.67 in    
Wind  
Wind Speed 5 mph (NW)    
Max Wind Speed 10 mph    
Max Gust Speed -    
Visibility 10 miles    
Events      
Averages and records for this station are not official NWS values.
T = Trace of Precipitation, MM = Missing Value Source: NWS Daily Summary

Daily Weather History Graph

Daily Weather History Graph

Search for Another Location

Airport or City:

Astronomy

Mar. 01, 2018 Rise Set
Actual Time 6:36 AM AKST 5:22 PM AKST
Civil Twilight 6:00 AM AKST 5:59 PM AKST
Nautical Twilight 5:17 AM AKST 6:41 PM AKST
Astronomical Twilight 4:35 AM AKST 7:24 PM AKST
Moon 5:12 PM AKST (3/1) 6:47 AM AKST (3/1)
Length of Visible Light 11h 59m
Length of Day
10h 45m
Full, 100% of the Moon is Illuminated
Mar 1
Full
Mar 1
Full
Mar 9
Last Quarter
Mar 17
New
Mar 24
First Quarter

Hourly Weather History & Observations

Time (AKST) Temp. Windchill Dew Point Humidity Pressure Visibility Wind Dir Wind Speed Gust Speed Precip Events Conditions
12:53 AM 43.0 °F 41.3 °F 21.9 °F 43% 29.46 in 10.0 mi Variable 3.5 mph - N/A   Mostly Cloudy
1:53 AM 42.1 °F - 21.0 °F 43% 29.49 in 10.0 mi North - - N/A   Clear
2:53 AM 41.0 °F 39.0 °F 21.0 °F 45% 29.51 in 10.0 mi WNW 3.5 mph - N/A   Overcast
3:53 AM 42.1 °F 39.2 °F 19.0 °F 40% 29.53 in 10.0 mi Variable 4.6 mph - N/A   Overcast
4:53 AM 43.0 °F 41.3 °F 18.0 °F 37% 29.55 in 10.0 mi Variable 3.5 mph - N/A   Overcast
5:53 AM 43.0 °F 39.5 °F 19.0 °F 38% 29.56 in 10.0 mi Variable 5.8 mph - N/A   Overcast
6:02 AM 41.0 °F 36.4 °F 19.9 °F 43% 29.56 in 10.0 mi Variable 6.9 mph - N/A   Overcast
6:53 AM 41.0 °F 37.1 °F 19.4 °F 42% 29.58 in 10.0 mi Variable 5.8 mph - N/A   Mostly Cloudy
7:53 AM 42.8 °F 39.3 °F 19.4 °F 39% 29.61 in 10.0 mi NW 5.8 mph - N/A   Mostly Cloudy
8:53 AM 42.8 °F - 19.4 °F 39% 29.62 in 10.0 mi Calm Calm - N/A   Mostly Cloudy
9:53 AM 44.6 °F 42.2 °F 17.6 °F 34% 29.64 in 10.0 mi Variable 4.6 mph - N/A   Mostly Cloudy
1:53 PM 44.6 °F 41.4 °F 19.4 °F 37% 29.71 in 10.0 mi North 5.8 mph - N/A   Overcast
2:53 PM 44.1 °F 42.5 °F 19.0 °F 37% 29.73 in 10.0 mi North 3.5 mph - N/A   Overcast
3:53 PM 42.8 °F - 19.4 °F 39% 29.74 in 10.0 mi Calm Calm - N/A   Overcast
4:53 PM 42.8 °F - 23.0 °F 46% 29.76 in 10.0 mi Calm Calm - N/A   Overcast
5:53 PM 41.0 °F 38.0 °F 19.4 °F 42% 29.79 in 10.0 mi NW 4.6 mph - N/A   Overcast
6:53 PM 39.2 °F 34.2 °F 23.0 °F 52% 29.80 in 10.0 mi NW 6.9 mph - N/A   Overcast
7:53 PM 37.0 °F 31.6 °F 21.9 °F 54% 29.82 in 10.0 mi NW 6.9 mph - N/A   Overcast
8:53 PM 37.0 °F 29.8 °F 19.9 °F 50% 29.83 in 10.0 mi WNW 10.4 mph - N/A   Mostly Cloudy
9:53 PM 36.0 °F 29.6 °F 19.0 °F 50% 29.84 in 10.0 mi West 8.1 mph - N/A   Clear
10:53 PM 35.1 °F 27.9 °F 18.0 °F 50% 29.84 in 10.0 mi WNW 9.2 mph - N/A   Clear
11:53 PM 33.1 °F 26.1 °F 19.0 °F 56% 29.85 in 10.0 mi NW 8.1 mph - N/A   Clear